Preview of NWS' New Version of Forecast
This preview is not operational and should not be used for support decisions.

Regional Weather Roundup (RWR)

Issued by National Weather Service (NWS)

                            
000
ASUS44 KMEG 170900
RWRTN 
TENNESSEE HOURLY STATE WEATHER ROUNDUP
NATIONAL WEATHER SERVICE MEMPHIS TN
300 AM CST SUN FEB 17 2019

TNZ002-004-019-021-049-052-054-088>092-171000-
WEST TENNESSEE
  
CITY           SKY/WX    TMP DP  RH WIND       PRES   REMARKS
MEMPHIS INTL   RAIN      41  41 100 N5        29.72R                  
NWS MEMPHIS      N/A     40 N/A N/A MISG        N/A                   
JACKSON        CLOUDY    39  37  92 SE3       29.73F                  
DYERSBURG      LGT RAIN  39  37  92 CALM      29.76S                  
$$

TNZ008-025-027-028-033-062-065-066-171000-
NORTH MIDDLE TENNESSEE
  
CITY           SKY/WX    TMP DP  RH WIND       PRES   REMARKS
NASHVILLE      CLOUDY    41  36  82 E5        29.76F                  
CLARKSVILLE    LGT RAIN  39  35  86 CALM      29.78R FOG              
SMYRNA         LGT RAIN  40  38  93 SE5       29.77F                  
CROSSVILLE     CLOUDY    43  39  86 S7        29.78F                  
$$

TNZ061-075-076-078-094-096-097-171000-
SOUTH MIDDLE TENNESSEE
  
CITY           SKY/WX    TMP DP  RH WIND       PRES   REMARKS
$$

TNZ017-018-042-046-047-171000-
NORTHEAST TENNESSEE
  
CITY           SKY/WX    TMP DP  RH WIND       PRES   REMARKS
TRI CITIES     CLOUDY    39  36  89 CALM      29.86S                  
$$

TNZ012-013-036-069-073-074-171000-
CENTRAL EAST TENNESSEE
  
CITY           SKY/WX    TMP DP  RH WIND       PRES   REMARKS
KNOXVILLE      CLOUDY    42  39  89 CALM      29.84S                  
OAK RIDGE      CLOUDY    42  38  85 CALM      29.87F                  
$$

TNZ083-085-099-171000-
SOUTHEAST TENNESSEE
  
CITY           SKY/WX    TMP DP  RH WIND       PRES   REMARKS
CHATTANOOGA    CLOUDY    46  43  89 S3        29.85F                  
$$

SKY/WX REPORTED AS FAIR MEANS FEW OR NO CLOUDS BELOW
12 THOUSAND FEET.